| time (UTC) | temp C | wind direction | speed KPH | gust KPH | rain 1hr cm | rain 24hr cm | rain mn cm | humidity % | barometer mb |
| 20260903033045 | 13 | 266 | 3.2 | 9.7 | 0.00 | 0.03 | 0.03 | 33 | 1018.2 |
| 20260903031503 | 13 | 301 | 8.0 | 16.1 | 0.00 | 0.03 | 0.03 | 34 | 1017.9 |
| 20260903030053 | 14 | 262 | 3.2 | 11.3 | 0.00 | 0.03 | 0.03 | 36 | 1017.8 |
| 20260903024505 | 14 | 320 | 1.6 | 20.9 | 0.00 | 0.03 | 0.03 | 45 | 1017.5 |
| 20260903023100 | 15 | 68 | 0.0 | 4.8 | 0.00 | 0.03 | 0.03 | 45 | 1017.4 |
| 20260903021555 | 15 | 165 | 4.8 | 9.7 | 0.00 | 0.03 | 0.03 | 38 | 1017.1 |
| 20260903014619 | 15 | 69 | 1.6 | 8.0 | 0.00 | 0.03 | 0.03 | 44 | 1017.2 |
| 20260903013101 | 15 | 116 | 1.6 | 8.0 | 0.00 | 0.03 | 0.03 | 46 | 1016.9 |
| 20260903011549 | 15 | 248 | 1.6 | 12.9 | 0.00 | 0.03 | 0.03 | 48 | 1016.8 |
| 20260903010058 | 14 | 73 | 1.6 | 8.0 | 0.00 | 0.03 | 0.03 | 49 | 1016.7 |
| 20260903004558 | 14 | 46 | 3.2 | 11.3 | 0.00 | 0.03 | 0.03 | 49 | 1016.6 |
| 20260903003105 | 13 | 25 | 4.8 | 9.7 | 0.00 | 0.03 | 0.03 | 52 | 1016.5 |
| 20260903001501 | 13 | 77 | 1.6 | 11.3 | 0.00 | 0.03 | 0.03 | 55 | 1016.3 |
| 20260902234552 | 12 | 72 | 1.6 | 9.7 | 0.00 | 0.03 | 0.03 | 57 | 1016.4 |
| 20260902233101 | 13 | 37 | 4.8 | 11.3 | 0.00 | 0.03 | 0.03 | 57 | 1016.2 |
| 20260902231555 | 12 | 85 | 3.2 | 11.3 | 0.00 | 0.03 | 0.03 | 60 | 1016.0 |
| 20260902230049 | 12 | 101 | 3.2 | 9.7 | 0.00 | 0.03 | 0.03 | 62 | 1015.9 |
| 20260902224507 | 11 | 136 | 3.2 | 9.7 | 0.00 | 0.03 | 0.03 | 65 | 1015.9 |
| 20260902223107 | 11 | 196 | 3.2 | 9.7 | 0.00 | 0.03 | 0.03 | 66 | 1015.6 |
| 20260902221549 | 11 | 71 | 3.2 | 8.0 | 0.00 | 0.03 | 0.03 | 70 | 1015.8 |
| 20260902220101 | 11 | 195 | 3.2 | 11.3 | 0.00 | 0.03 | 0.03 | 69 | 1015.7 |
| 20260902214620 | 11 | 167 | 3.2 | 4.8 | 0.00 | 0.03 | 0.03 | 71 | 1015.7 |
| 20260902213051 | 10 | 217 | 1.6 | 9.7 | 0.00 | 0.03 | 0.03 | 74 | 1015.5 |
| 20260902211501 | 10 | 125 | 3.2 | 6.4 | 0.00 | 0.03 | 0.03 | 75 | 1015.5 |
| 20260902210055 | 8 | 68 | 3.2 | 6.4 | 0.00 | 0.03 | 0.03 | 77 | 1015.5 |
| 20260902204550 | 8 | 211 | 1.6 | 6.4 | 0.00 | 0.03 | 0.03 | 82 | 1015.3 |
| 20260902203002 | 7 | 309 | 0.0 | 4.8 | 0.00 | 0.03 | 0.03 | 83 | 1015.3 |
| 20260902201500 | 6 | 195 | 1.6 | 4.8 | 0.00 | 0.03 | 0.03 | 86 | 1015.1 |
| 20260902200150 | 5 | 227 | 1.6 | 6.4 | 0.00 | 0.03 | 0.03 | 91 | 1014.8 |
| 20260902194503 | 3 | 232 | 1.6 | 6.4 | 0.00 | 0.03 | 0.03 | 93 | 1014.6 |
| 20260902193056 | 3 | 266 | 3.2 | 9.7 | 0.03 | 0.03 | 0.03 | 93 | 1014.5 |
| 20260902191550 | 2 | 229 | 3.2 | 8.0 | 0.03 | 0.03 | 0.03 | 93 | 1014.3 |
| 20260902190144 | 2 | 80 | 0.0 | 4.8 | 0.03 | 0.03 | 0.03 | 92 | 1013.5 |
| 20260902184501 | 3 | 210 | 0.0 | 3.2 | 0.00 | 0.00 | 0.00 | 88 | 1013.9 |
| 20260902183052 | 3 | 250 | 0.0 | 0.0 | 0.00 | 0.00 | 0.00 | 87 | 1013.5 |
| 20260902181549 | 3 | 251 | 0.0 | 3.2 | 0.00 | 0.00 | 0.00 | 86 | 1013.2 |
| 20260902180005 | 2 | 253 | 0.0 | 1.6 | 0.00 | 0.00 | 0.00 | 88 | 1012.8 |
| 20260902174556 | 2 | 241 | 1.6 | 3.2 | 0.00 | 0.00 | 0.00 | 89 | 1012.6 |
| 20260902173050 | 2 | 269 | 0.0 | 3.2 | 0.00 | 0.00 | 0.00 | 91 | 1012.4 |
| 20260902171501 | 1 | 266 | 0.0 | 1.6 | 0.00 | 0.00 | 0.00 | 90 | 1012.2 |
| 20260902170054 | 1 | 113 | 0.0 | 3.2 | 0.00 | 0.00 | 0.00 | 90 | 1011.9 |
| 20260902164553 | 1 | 227 | 0.0 | 0.0 | 0.00 | 0.00 | 0.00 | 93 | 1011.9 |
| 20260902163059 | 0 | 116 | 0.0 | 0.0 | 0.00 | 0.00 | 0.00 | 94 | 1011.6 |
| 20260902161551 | 0 | 245 | 0.0 | 0.0 | 0.00 | 0.00 | 0.00 | 96 | 1011.5 |
| 20260902160050 | -1 | 245 | 0.0 | 0.0 | 0.00 | 0.00 | 0.00 | 95 | 1011.4 |
| 20260902154604 | -2 | 245 | 0.0 | 0.0 | 0.00 | 0.00 | 0.00 | 95 | 1011.3 |
| 20260902153056 | -2 | 246 | 0.0 | 0.0 | 0.00 | 0.00 | 0.00 | 95 | 1010.9 |
| 20260902151549 | -2 | 245 | 0.0 | 0.0 | 0.00 | 0.00 | 0.00 | 96 | 1011.0 |
| 20260902150001 | -2 | 245 | 0.0 | 0.0 | 0.00 | 0.00 | 0.00 | 96 | 1010.8 |
| 20260902144516 | -2 | 245 | 0.0 | 0.0 | 0.00 | 0.00 | 0.00 | 96 | 1010.6 |
| 20260902143052 | -2 | 245 | 0.0 | 0.0 | 0.00 | 0.00 | 0.00 | 96 | 1010.6 |
| 20260902141545 | -3 | 245 | 0.0 | 0.0 | 0.00 | 0.00 | 0.00 | 95 | 1010.4 |
| 20260902140043 | -3 | 245 | 0.0 | 0.0 | 0.00 | 0.00 | 0.00 | 95 | 1010.4 |
| 20260902134554 | -3 | 245 | 0.0 | 0.0 | 0.00 | 0.00 | 0.00 | 96 | 1010.2 |
| 20260902133056 | -3 | 245 | 0.0 | 0.0 | 0.00 | 0.00 | 0.00 | 96 | 1010.2 |
| 20260902131504 | -3 | 245 | 0.0 | 0.0 | 0.00 | 0.00 | 0.00 | 94 | 1010.1 |
| 20260902130054 | -3 | 245 | 0.0 | 0.0 | 0.00 | 0.00 | 0.00 | 95 | 1009.9 |
| 20260902124551 | -3 | 245 | 0.0 | 0.0 | 0.00 | 0.00 | 0.00 | 95 | 1009.7 |
| 20260902123105 | -3 | 245 | 0.0 | 0.0 | 0.00 | 0.00 | 0.00 | 95 | 1009.6 |
| 20260902121605 | -2 | 245 | 0.0 | 0.0 | 0.00 | 0.00 | 0.00 | 95 | 1009.6 |
| 20260902120047 | -2 | 245 | 0.0 | 0.0 | 0.00 | 0.00 | 0.00 | 95 | 1009.6 |
| 20260902114502 | -1 | 245 | 0.0 | 0.0 | 0.00 | 0.00 | 0.00 | 96 | 1009.5 |
| 20260902113059 | -2 | 245 | 0.0 | 0.0 | 0.00 | 0.00 | 0.00 | 94 | 1009.6 |
| 20260902111549 | -2 | 245 | 0.0 | 0.0 | 0.00 | 0.00 | 0.00 | 95 | 1009.7 |
| 20260902110001 | -1 | 239 | 0.0 | 0.0 | 0.00 | 0.00 | 0.00 | 96 | 1009.6 |
| 20260902104608 | -2 | 239 | 0.0 | 0.0 | 0.00 | 0.00 | 0.00 | 93 | 1009.6 |
| 20260902103051 | -2 | 239 | 0.0 | 0.0 | 0.00 | 0.00 | 0.00 | 94 | 1009.4 |
| 20260902101501 | -1 | 239 | 0.0 | 0.0 | 0.00 | 0.00 | 0.00 | 94 | 1009.5 |
| 20260902100049 | -1 | 239 | 0.0 | 0.0 | 0.00 | 0.00 | 0.00 | 92 | 1009.3 |
| 20260902094550 | -1 | 239 | 0.0 | 0.0 | 0.00 | 0.00 | 0.00 | 90 | 1009.5 |
| 20260902093056 | -1 | 239 | 0.0 | 0.0 | 0.00 | 0.00 | 0.00 | 91 | 1009.3 |
| 20260902091600 | 0 | 239 | 0.0 | 0.0 | 0.00 | 0.00 | 0.00 | 93 | 1009.2 |
| 20260902090044 | 0 | 239 | 0.0 | 0.0 | 0.00 | 0.00 | 0.00 | 90 | 1009.3 |
| 20260902084606 | 0 | 239 | 0.0 | 0.0 | 0.00 | 0.00 | 0.00 | 92 | 1009.3 |
| 20260902083111 | -1 | 239 | 0.0 | 0.0 | 0.00 | 0.00 | 0.00 | 93 | 1009.4 |
| 20260902081546 | 0 | 238 | 0.0 | 0.0 | 0.00 | 0.00 | 0.00 | 85 | 1009.3 |
| 20260902080057 | 0 | 238 | 0.0 | 0.0 | 0.00 | 0.00 | 0.00 | 86 | 1009.4 |
| 20260902074554 | 0 | 252 | 0.0 | 0.0 | 0.00 | 0.00 | 0.00 | 82 | 1009.5 |
| 20260902073046 | 0 | 40 | 0.0 | 0.0 | 0.00 | 0.00 | 0.00 | 82 | 1009.3 |
| 20260902071557 | 1 | 40 | 0.0 | 0.0 | 0.00 | 0.00 | 0.00 | 86 | 1009.3 |
| 20260902070052 | 1 | 40 | 0.0 | 0.0 | 0.00 | 0.00 | 0.00 | 86 | 1009.1 |
| 20260902064508 | 1 | 40 | 0.0 | 0.0 | 0.00 | 0.00 | 0.00 | 81 | 1009.0 |
| 20260902063056 | 1 | 40 | 0.0 | 0.0 | 0.00 | 0.00 | 0.00 | 79 | 1009.0 |
| 20260902061555 | 3 | 40 | 0.0 | 0.0 | 0.00 | 0.00 | 0.00 | 76 | 1008.7 |
| 20260902060039 | 3 | 40 | 0.0 | 0.0 | 0.00 | 0.00 | 0.00 | 79 | 1008.8 |
| 20260902054607 | 3 | 40 | 0.0 | 0.0 | 0.00 | 0.00 | 0.00 | 77 | 1008.8 |
| 20260902053100 | 5 | 40 | 0.0 | 0.0 | 0.00 | 0.00 | 0.00 | 74 | 1008.7 |
| 20260902051544 | 5 | 40 | 0.0 | 0.0 | 0.00 | 0.00 | 0.00 | 72 | 1008.7 |
| 20260902050108 | 6 | 40 | 0.0 | 0.0 | 0.00 | 0.00 | 0.00 | 70 | 1008.8 |
| 20260902044553 | 8 | 40 | 0.0 | 0.0 | 0.00 | 0.00 | 0.00 | 65 | 1008.7 |
| 20260902043052 | 10 | 40 | 0.0 | 0.0 | 0.00 | 0.00 | 0.00 | 60 | 1008.6 |
| 20260902041601 | 11 | 40 | 0.0 | 0.0 | 0.00 | 0.00 | 0.00 | 56 | 1008.6 |
| 20260902040053 | 12 | 40 | 0.0 | 0.0 | 0.00 | 0.00 | 0.00 | 55 | 1008.6 |
| 20260902034547 | 13 | 103 | 0.0 | 0.0 | 0.00 | 0.00 | 0.00 | 53 | 1008.6 |